{"data":{"norad_id":49434,"epoch":"2026-09-20T02:23:30.502176Z","epoch_age_seconds":75857,"freshness":"FRESH","line1":"1 49434U 21104AC  26263.09965859  .00011702  00000+0  68880-3 0  9995","line2":"2 49434  53.2159  75.2123 0002233 104.4148 255.7094 15.12053948269088","mean_motion":15.12053948,"eccentricity":0.0002233,"inclination_deg":53.2159,"raan_deg":75.2123,"arg_perigee_deg":104.4148,"mean_anomaly_deg":255.7094,"bstar":0.0006888,"rev_number":26908,"period_min":95.234697274174,"perigee_km":528.39446760862,"apogee_km":531.47961347513,"semimajor_km":6908.0740405419,"source":"CELESTRAK","updated_at":"2026-09-20T09:00:39.259911Z"}}